Glendale Luke AFB, AZ

9:47 PM MST on March 26, 2017 (GMT -0700)
Luke Air Force Base

Weather History for KLUF - October, 2012

Change the Weather History Date:

Saturday, October 6, 2012

  Actual Average Record
Temperature  
Mean Temperature 78 °F -  
Max Temperature 90 °F 96 °F 106 °F (1980)
Min Temperature 65 °F 59 °F 45 °F (1939)
Cooling Degree Days 12    
Growing Degree Days 28 (Base 50)    
Moisture  
Dew Point 43 °F    
Average Humidity 29    
Maximum Humidity 42    
Minimum Humidity 18    
Precipitation  
Precipitation 0.00 in - - ()
Sea Level Pressure  
Sea Level Pressure 29.81 in    
Wind  
Wind Speed 3 mph (WNW)    
Max Wind Speed 7 mph    
Max Gust Speed -    
Visibility 10 miles    
Events      
Averages and records for this station are not official NWS values.
T = Trace of Precipitation, MM = Missing Value Source: NWS Daily Summary

Daily Weather History Graph

Daily Weather History Graph

Search for Another Location

Airport or City:

Trip Planner

Search our weather history database for the weather conditions in past years. The results will help you decide how hot, cold, wet, or windy it might be!

Date:

Astronomy

Oct. 06, 2012 Rise Set
Actual Time 6:27 AM MST 6:06 PM MST
Civil Twilight 6:02 AM MST 6:31 PM MST
Nautical Twilight 5:34 AM MST 7:00 PM MST
Astronomical Twilight 5:05 AM MST 7:28 PM MST
Moon 10:38 PM MST (10/6) 12:12 PM MST (10/6)
Length of Visible Light 12h 28m
Length of Day
11h 38m
Waning Gibbous, 64% of the Moon is Illuminated
Oct 6
Waning Gibbous
Oct 8
Last Quarter
Oct 15
New
Oct 21
First Quarter
Oct 29
Full

Hourly Weather History & Observations

Time (MST) Temp. Dew Point Humidity Pressure Visibility Wind Dir Wind Speed Gust Speed Precip Events Conditions
12:55 AM 73.0 °F 41.9 °F 33% 29.83 in 10.0 mi Calm Calm - N/A   Clear
1:55 AM 70.2 °F 42.4 °F 37% 29.83 in 10.0 mi NNW 3.5 mph - N/A   Clear
2:55 AM 70.2 °F 41.7 °F 36% 29.81 in 10.0 mi Calm Calm - N/A   Clear
3:55 AM 68.4 °F 41.2 °F 37% 29.82 in 10.0 mi North 5.8 mph - N/A   Clear
4:55 AM 67.1 °F 42.4 °F 41% 29.83 in 10.0 mi North 5.8 mph - N/A   Clear
5:55 AM 65.5 °F 41.9 °F 42% 29.84 in 10.0 mi North 4.6 mph - N/A   Clear
6:55 AM 66.2 °F 41.7 °F 41% 29.86 in 10.0 mi NW 3.5 mph - N/A   Clear
7:55 AM 72.1 °F 40.8 °F 32% 29.87 in 10.0 mi Calm Calm - N/A   Clear
8:55 AM 77.5 °F 40.8 °F 27% 29.88 in 10.0 mi Calm Calm - N/A   Clear
9:55 AM 79.5 °F 40.8 °F 25% 29.88 in 10.0 mi East 3.5 mph - N/A   Clear
10:55 AM 83.7 °F 41.5 °F 23% 29.86 in 10.0 mi Calm Calm - N/A   Clear
11:55 AM 86.7 °F 41.5 °F 20% 29.83 in 10.0 mi SSE 4.6 mph - N/A   Partly Cloudy
12:55 PM 88.3 °F 41.7 °F 20% 29.81 in 10.0 mi WNW 3.5 mph - N/A   Partly Cloudy
1:55 PM 90.0 °F 40.5 °F 18% 29.78 in 10.0 mi South 4.6 mph - N/A   Clear
2:55 PM 90.0 °F 43.0 °F 19% 29.76 in 10.0 mi Calm Calm - N/A   Clear
3:55 PM 90.5 °F 42.1 °F 18% 29.76 in 10.0 mi South 6.9 mph - N/A   Clear
4:55 PM 90.0 °F 41.7 °F 19% 29.75 in 10.0 mi South 6.9 mph - N/A   Clear
5:55 PM 88.9 °F 42.1 °F 19% 29.75 in 10.0 mi SSW 4.6 mph - N/A   Clear
6:55 PM 86.9 °F 43.2 °F 22% 29.75 in 10.0 mi Calm Calm - N/A   Clear
7:55 PM 84.7 °F 43.7 °F 24% 29.76 in 10.0 mi Calm Calm - N/A   Clear
8:55 PM 82.6 °F 45.0 °F 27% 29.76 in 10.0 mi South 3.5 mph - N/A   Clear
9:55 PM 76.8 °F 46.4 °F 34% 29.77 in 10.0 mi Calm Calm - N/A   Partly Cloudy
10:55 PM 75.4 °F 47.7 °F 37% 29.77 in 10.0 mi NW 3.5 mph - N/A   Clear
11:55 PM 73.0 °F 47.7 °F 40% 29.77 in 10.0 mi North 4.6 mph - N/A   Clear